Location: Harwich
(41.7160°N, 69.9939°W)
Time: 14:26:48
(UTC+01:00)

A-11 Canister half - Pass Details

Date: 08 December 2023
Orbit: 1526 x 1682 km, 47.3° (Epoch: 01 March)

Event Time Altitude Azimuth Distance (km) Brightness Sun altitude
Rises 06:32:08 0° 297° (WNW) 4,910 - -67.1°
Reaches altitude 10° 06:35:25 10° 293° (WNW) 3,904 - -66.8°
Maximum altitude 06:44:54 52° 221° (SW) 1,945 - -65.6°
Drops below altitude 10° 06:54:06 10° 149° (SSE) 3,775 - -64.3°
Sets 06:57:13 0° 144° (SE) 4,737 - -63.9°
